Date,TemperatureHighF,TemperatureAvgF,TemperatureLowF,DewpointHighF,DewpointAvgF,DewpointLowF,HumidityHigh,HumidityAvg,HumidityLow,PressureMaxIn,PressureMinIn,WindSpeedMaxMPH,WindSpeedAvgMPH,GustSpeedMaxMPH,PrecipitationSumIn
2013-3-1,74.5,58.9,47.5,56.6,50.6,43.8,89,75,52,30.43,30.19,0,0,0,0.00
2013-3-2,68.5,58.2,53.2,53.8,49.8,47.6,87,75,50,30.23,30.08,0,0,0,0.00
2013-3-3,62.8,55.2,52.5,53.7,50.1,46.9,89,83,70,30.14,30.05,0,0,0,0.00
2013-3-4,59.9,53.6,48.6,49.8,47.0,43.9,84,78,67,30.17,30.06,0,0,0,0.00
2013-3-5,57.9,52.2,47.8,47.0,45.1,42.2,87,77,65,30.10,29.93,0,0,0,0.00
2013-3-6,60.8,53.2,46.2,51.2,47.7,42.0,91,82,67,30.10,29.93,0,0,0,0.00
2013-3-7,58.8,50.4,44.1,48.1,44.7,39.8,89,81,62,30.01,29.85,0,0,0,0.00
2013-3-8,63.1,53.3,46.8,50.8,45.8,41.8,90,77,54,30.11,29.83,0,0,0,0.00
2013-3-9,67.8,55.9,48.7,51.4,44.7,39.1,79,68,36,30.31,30.10,0,0,0,0.00
2013-3-10,63.1,52.4,43.2,51.8,45.9,38.3,87,79,61,30.37,30.25,0,0,0,0.00
2013-3-11,69.3,53.7,43.3,52.5,45.7,39.4,88,76,40,30.27,30.10,0,0,0,0.00
2013-3-12,73.8,56.2,47.8,54.2,48.8,43.5,90,78,45,30.16,30.05,0,0,0,0.00
2013-3-13,77.4,57.4,47.8,57.3,50.4,45.0,91,79,43,30.15,30.06,0,0,0,0.00
2013-3-14,63.9,55.8,49.5,55.4,50.9,46.6,92,84,72,30.16,30.08,0,0,0,0.00
2013-3-15,68.5,56.5,47.1,54.6,48.5,41.9,85,75,51,30.13,30.03,0,0,0,0.00
2013-3-16,63.3,55.2,49.5,54.2,50.0,46.1,89,83,68,30.10,30.03,0,0,0,0.00
2013-3-17,67.5,55.1,45.0,52.6,47.5,41.5,89,76,55,30.14,30.04,0,0,0,0.00
2013-3-18,63.1,53.4,44.8,52.1,46.8,40.1,86,78,63,30.14,30.03,0,0,0,0.00
2013-3-19,68.9,56.9,49.3,52.5,47.9,43.0,87,73,48,30.14,30.05,0,0,0,0.00
2013-3-20,64.6,58.1,54.7,54.8,52.2,49.1,89,81,59,30.14,30.08,0,0,0,0.00
2013-3-21,68.9,58.0,49.1,53.3,46.3,40.7,85,67,37,30.12,29.98,0,0,0,0.00
2013-3-22,71.2,56.4,43.5,50.6,39.1,23.7,87,59,18,30.08,30.00,0,0,0,0.00
2013-3-23,67.1,54.9,43.3,50.9,43.5,35.4,77,66,47,30.12,30.03,0,0,0,0.00
2013-3-24,67.8,54.8,45.0,51.0,45.5,38.5,80,72,48,30.11,29.98,0,0,0,0.00
2013-3-25,64.9,54.6,47.5,50.9,46.5,42.6,88,75,54,30.03,29.95,0,0,0,0.00
2013-3-26,68.2,56.0,48.4,53.8,47.6,43.0,82,74,59,30.02,29.93,0,0,0,0.00
2013-3-27,66.4,57.2,50.7,56.0,50.9,45.7,89,80,67,30.03,29.96,0,0,0,0.00
2013-3-28,66.4,59.2,54.9,59.1,54.2,50.1,92,84,69,30.10,30.02,0,0,0,0.00
2013-3-29,66.6,57.1,50.0,56.9,51.4,46.6,89,82,69,30.09,30.04,0,0,0,0.00
2013-3-30,66.4,58.3,53.4,56.2,52.9,50.3,90,83,65,30.10,30.02,0,0,0,0.00
2013-3-31,65.5,58.9,55.0,58.3,54.3,52.0,91,85,70,30.09,30.02,0,0,0,0.00